www.pogodaiklimat.ru

Погода и климат >> Архив погоды >> Того >> Ньамтугу


ПОГОДА в Ньамтугу

  • Прогноз погоды в Ньамтугу
  • Монитор погоды в Ньамтугу

АРХИВ ПОГОДЫ в Ньамтугу

Время (UTC), дата Ветер
(напр.,м/с)
 
Видим.   Явления Облачность Т
(С)
Тd
(С)
f
(%)
Тe
(С)
Тes
(С)
Комфортность P
(гПа)
Po
(гПа)
Тmin
(С)
Tmax
(С)
R
(мм)
R24
(мм)
S
(см)
12 15.04 ЮЗ 2 10 км 9/1 300 м
[Cu hum Ac lent Ci sp]
+32.5 +22.2 55 +42 +53 опасность
перегрева
1010.6 959.9
18 15.04 СЗ 2 10 км гроза без осадков 9/4 300 м
[Cb cap Ac cuf]
+28.5 +22.8 71 +38 +38 очень
душно
1009.4 958.1 +35.0
00 16.04 Ю 2 10 км {гроза} 9/0
[Ac As]
+27.2 +21.8 72 +35 +35 очень
душно
1010.0 959.4
06 16.04 штиль 0 10 км 9/3 210 м
[Sc Ac lent]
+26.5 +23.7 85 +36 +36 очень
душно
1009.5 958.5 +26.5
12 16.04 З 2 10 км 9/1 300 м
[Cu hum Ac lent Ci sp]
+34.5 +22.5 50 +44 +55 опасность
перегрева
1009.7 959.2
18 16.04 Ю 4 10 км 9/3 360 м
[Cb cap Ac As]
+34.9 +17.8 36 +38 +38 очень
душно
1006.8 956.5 +37.5
00 17.04 Ю 6 10 км зарница 9/3 240 м
[Cb cap Ac trans Ci sp]
+30.5 +21.7 59 +39 +39 очень
душно
1009.3 959.1
06 17.04 З 2 10 км 9/0
[Ac und]
+25.3 +21.9 81 +33 +33 очень
душно
1008.4 957.9 +25.3
12 17.04 З 3 10 км 9/3 300 м
[Cu hum Ci sp]
+33.2 +22.1 52 +42 +52 опасность
перегрева
1009.6 959.3
18 17.04 С 6 10 км гроза, ливневой дождь 9/9 300 м
[Cb cap]
+35.2 +19.7 40 +41 +41 опасность
перегрева
1006.8 956.4 +36.6 0.0
00 18.04 Ю 3 10 км {гроза, дождь} 9/0
[Ci sp]
+30.0 +22.1 63 +39 +39 очень
душно
1008.8 958.5 0.0
06 18.04 ЮЗ 2 10 км 9/0
[Ac lent Ci sp]
+27.0 +22.7 77 +36 +36 очень
душно
1008.5 958.1 +27.0 0.1
12 18.04 З 4 10 км 9/3 300 м
[Cu hum Ci sp]
+34.1 +23.3 53 +44 +53 опасность
перегрева
1008.7 958.5
18 18.04 С 2 10 км 9/3 300 м
[Cb cap Ac lent Ci sp]
+35.5 +19.9 40 +41 +41 опасность
перегрева
1005.4 955.3 +38.3
00 19.04 Ю 4 10 км 9/0
[Ac lent]
+30.0 +22.1 63 +39 +39 очень
душно
1007.6 957.5
06 19.04 ЮЗ 1 10 км 9/0
[Ac lent Ci sp]
+26.5 +22.9 81 +35 +35 очень
душно
1008.4 958.0 +26.0
12 19.04 Ю 3 10 км 9/3 300 м
[Cu hum Ac trans Ci sp]
+33.5 +22.1 51 +42 +49 опасность
перегрева
1009.7 959.4
18 19.04 Ю 3 10 км 9/3 400 м
[Cu med, cong Ci sp]
+33.7 +21.2 48 +41 +41 опасность
перегрева
1007.7 957.2 +36.8
00 20.04 Ю 4 10 км 9/0
[Ac lent]
+28.8 +22.8 70 +38 +38 очень
душно
1009.8 959.4
06 20.04 ЮЗ 3 10 км 9/0
[Ac lent Ci sp]
+26.8 +23.4 82 +36 +36 очень
душно
1009.3 958.7 +26.8
12 20.04 Ю 3 10 км 9/6 270 м
[Cu hum Ac As]
+30.9 +23.4 64 +41 +45 опасность
перегрева
1010.5 959.9
18 20.04 СЗ 2 10 км 9/1 360 м
[Cb cap Ac lent]
+34.0 +21.0 47 +41 +41 опасность
перегрева
1007.3 956.9 +35.2
00 21.04 Ю 2 10 км 9/0
[Ci sp]
+27.5 +20.9 67 +34 +34 очень
душно
1009.3 958.6
06 21.04 ЮЗ 4 10 км 9/0
[Ac lent]
+26.0 +23.1 84 +35 +35 очень
душно
1008.7 958.1 +26.0
12 21.04 ЮЗ 4 10 км 9/3 300 м
[Cu hum Ac lent Ci sp]
+33.5 +22.1 51 +42 +48 опасность
перегрева
1008.8 958.3
18 21.04 ЮЗ 2 10 км 9/3 300 м
[Cu med, cong Ci sp]
+34.6 +19.1 40 +40 +40 очень
душно
1005.9 955.5 +36.9
00 22.04 ЮЗ 3 10 км 9/0
[Ac trans Ci sp]
+29.8 +22.0 63 +38 +38 очень
душно
1007.8 957.6
06 22.04 Ю 3 10 км {гроза} 9/4 210 м
[Cu med, cong Ac lent]
+25.0 +21.9 83 +32 +32 очень
душно
1008.3 957.8 +24.5

 

Местоположение метеостанции Ньамтугу (Того): широта 9.77 долгота 1.10 высота над уровнем моря 343 м.

В архиве по умолчанию представлена погода в Ньамтугу за последнюю неделю. Архивные данные за месяц целиком и за предыдущие месяцы, начиная с января 2011 года, Вы можете получить, выбрав интересующий диапазон дат из раскрывающегося списка и нажав кнопку "Ввод!".


*Определитесь, кто Вы:
робот инопланетянин человек

Внимание! Время в таблицах - всемирное. Для получения местного времени необходимо прибавить поправку, которая равна 0 ч.

Смотрите также архив погоды в соседних городах и на ближайших метеорологических станциях:

Погода в Каре (Того) (26 км)
Погода в Натитингу (Бенин) (68 км)
Погода в Сокоде (Того) (88 км)
Погода в Манго (Того) (96 км)
Погода в Йенди (Гана) (128 км)
Погода в Дапаоне (Того) (147 км)
Погода в Параку (Бенин) (173 км)
Погода в Тамале (Гана) (216 км)
Погода в Атакпаме (Того) (244 км)
Погода в Саве (Бенин) (245 км)

Пояснения к столбцам:

Ветер - указаны скорость ветра в м/с - средняя за 10 мин, порывы в срок и между сроками (в фигурных скобках) и направление, откуда дует ветер: С - северный, СВ - северо-восточный, В - восточный, ЮВ - юго-восточный, Ю - южный, ЮЗ - юго-западный, З - западный, СЗ - северо-западный.
Видимость - горизонтальная дальность видимости в метрах или километрах. При видимости от 1 до 10 км при отсутствии осадков обычно наблюдается дымка, при ухудшении видимости до 1 км и менее - туман. В сухую погоду видимость может ухудшаться дымом, пылью или мглою.
Явления - указаны атмосферные явления, наблюдавшиеся в срок или в последний час перед сроком; фигурными скобками обозначены явления, наблюдавшиеся между сроками (за 1-3 часа до срока); квадратными скобками обозначены град или гололедные отложения с указанием их диаметра в мм.
Облачность - указаны через наклонную черту общая и нижняя облачность в баллах и высота нижней границы облаков в метрах; квадратными скобками обозначены формы облаков: Ci - перистые, Cs - перисто-слоистые, Cc - перисто-кучевые, Ac - высококучевые, As - высокослоистые, Sc - слоисто-кучевые, Ns - слоисто-дождевые, Cu - кучевые, Cb - кучево-дождевые. Подробнее классификацию облаков см. в Атласе облаков (PDF).
T - Температура воздуха - температура, измеренная на высоте 2 м над землей.
Td - Температура точки росы - температура, при понижении до которой содержащийся в воздухе водяной пар достигнет насыщения.
f - Относительная влажность воздуха - влажноcть воздуха, измеренная на высоте 2 м над землей.
Te - Эффективная температура - температура, которую ощущает одетый по сезону человек в тени. Характеристика душности погоды. При расчете учитывается влияние влажности воздуха и скорости ветра на теплоощущения человека.
Tes - Эффективная температура на солнце - температура, которую ощущает человек, с поправкой на солнечный нагрев. Характеристика знойности погоды. Зависит от высоты солнца над горизонтом, облачности и скорости ветра. Ночью, в пасмурную погоду, а также при ветре 12 м/с и более поправка равна нулю.
P - Атмосферное давление - приведенное к уровню моря атмосферное давление.
Po - Атмосферное давление - измеренное на уровне метеостанции атмосферное давление.
Tmin - Минимальная температура - минимум температуры воздуха на высоте 2 м над землей.
Tmax - Максимальная температура - максимум температуры воздуха на высоте 2 м над землей.
R - Количество осадков - Количество выпавших осадков за период времени, мм. При наведении курсора мыши на число - период времени, за который выпало указанное количество осадков.
R24 - Количество осадков - Количество выпавших осадков за 24 часа, мм.
S - Снежный покров - Высота снежного покрова, см. При наведении курсора мыши на число - состояние снежного покрова и степень покрытия местности в баллах.